(271619) = 2004 PX50

Discovered at Socorro on 2004-08-08 by LINEAR.

Orbit

Orbit type: Main Belt

Note: WebGL enabled browser required.

epoch2023-09-13.0
epoch JD2460200.5
perihelion date2023-04-25.25038
perihelion JD2460059.75038
argument of perihelion (°)190.58980
ascending node (°)111.34114
inclination (°)4.46531
eccentricity0.2934925
perihelion distance (AU)1.7096316
Tisserand w.r.t. Jupiter3.5
ΔV w.r.t. Earth (km/sec)8.3
semimajor axis (AU)2.4198349
mean anomaly (°)36.85297
mean daily motion (°/day)0.26183350
aphelion distance (AU)3.130
period (years)3.76
P-vector [x]0.52837716
P-vector [y]-0.77314921
P-vector [z]-0.35079606
Q-vector [x]0.84590713
Q-vector [y]0.51469871
Q-vector [z]0.13973675
absolute magnitude17.33
phase slope0.15
uncertainty0
referenceMPEC 2024-A65
observations used489
oppositions12
arc length (days)7089
first opposition used2004
last opposition used2024
residual rms (arc-secs)0.67
perturbers coarse indicatorM-v
perturbers precise indicator003Ek
first observation date used2004-08-08.0
last observation date used2024-01-05.0
computer nameMPCLINUX
JD of orbit computation2456700.317685
perihelion JD uncertainty (days)3.8410E-04
argument of perihelion uncertainty (°)1.3568E-04
ascending node uncertainty (°)1.1470E-04
inclination uncertainty (°)6.6604E-06
eccentricity uncertainty 8.7727E-08
perihelion distance uncertainty (AU)1.9195E-07
Minimum Orbit Intersection Distances (in AU)
for orbit epoch: 2460200.5, reference: E2024-A48
Mercury1.26946
Venus0.98197
Earth0.69381
Mars0.30245
Jupiter2.1104
Saturn5.97471
Uranus15.4392
Neptune27.0652

Observations

492 total observations over interval: 2004 08 08.29323 – 2024 01 05.266911
These data are available for download (format description).

Date (UT) J2000 RA J2000 Dec Magn Location Ref
2004 08 08.29323 22 28 47.53 -15 25 43.5 18.6   704 – Lincoln Laboratory ETS, New Mexico MPS 111238
2004 08 08.30261 22 28 47.25 -15 25 47.9 18.6   704 – Lincoln Laboratory ETS, New Mexico MPS 111238
2004 08 08.31193 22 28 46.89 -15 25 52.7 18.7   704 – Lincoln Laboratory ETS, New Mexico MPS 111238
2004 08 08.32139 22 28 46.63 -15 25 57.5 18.6   704 – Lincoln Laboratory ETS, New Mexico MPS 111238
2004 08 08.33019 22 28 46.41 -15 26 01.9 18.0 R 699 – Lowell Observatory-LONEOS MPS 114385
2004 08 08.33079 22 28 46.32 -15 26 02.7 18.3   704 – Lincoln Laboratory ETS, New Mexico MPS 111238
2004 08 08.34318 22 28 45.96 -15 26 08.4   699 – Lowell Observatory-LONEOS MPS 114385
2004 08 08.35616 22 28 45.50 -15 26 14.6   699 – Lowell Observatory-LONEOS MPS 114385
2004 08 08.36913 22 28 45.16 -15 26 21.0   699 – Lowell Observatory-LONEOS MPS 114385
2004 08 08.36948 22 28 45.20 -15 26 20.9 17.9   644 – Palomar Mountain/NEAT MPS 114385
2004 08 08.39662 22 28 44.33 -15 26 34.4 17.9   644 – Palomar Mountain/NEAT MPS 114385
2004 08 08.42792 22 28 43.32 -15 26 49.7 17.9   644 – Palomar Mountain/NEAT MPS 114385
2004 08 11.27213 22 27 18.26 -15 50 18.3 18.5   704 – Lincoln Laboratory ETS, New Mexico MPS 111238
2004 08 11.28208 22 27 17.88 -15 50 23.0 18.7   704 – Lincoln Laboratory ETS, New Mexico MPS 111238
2004 08 11.29200 22 27 17.54 -15 50 28.7 18.7   704 – Lincoln Laboratory ETS, New Mexico MPS 111238
2004 08 11.30192 22 27 17.16 -15 50 33.3 18.5   704 – Lincoln Laboratory ETS, New Mexico MPS 111238
2004 08 11.31192 22 27 16.78 -15 50 38.2 18.9   704 – Lincoln Laboratory ETS, New Mexico MPS 111238
2004 08 23.26399 22 19 52.39 -17 25 57.2 17.4 R 699 – Lowell Observatory-LONEOS MPS 114385
2004 08 23.27858 22 19 51.71 -17 26 03.6   699 – Lowell Observatory-LONEOS MPS 114385
2004 08 23.29318 22 19 51.13 -17 26 10.1   699 – Lowell Observatory-LONEOS MPS 114385
2004 08 23.30775 22 19 50.45 -17 26 17.1   699 – Lowell Observatory-LONEOS MPS 114385
2004 09 07.23239 22 10 47.86 -18 52 23.3 18.6   704 – Lincoln Laboratory ETS, New Mexico MPS 114385
2004 09 07.24342 22 10 47.49 -18 52 26.0 19.3   704 – Lincoln Laboratory ETS, New Mexico MPS 114385
2004 09 07.25446 22 10 47.12 -18 52 28.5 18.7   704 – Lincoln Laboratory ETS, New Mexico MPS 114385
2004 09 07.26559 22 10 46.73 -18 52 31.3 19.2   704 – Lincoln Laboratory ETS, New Mexico MPS 114385
2004 09 07.27662 22 10 46.38 -18 52 33.9 19.0   704 – Lincoln Laboratory ETS, New Mexico MPS 114385
2004 09 09.17885 22 09 52.91 -18 59 34.9 18.8   704 – Lincoln Laboratory ETS, New Mexico MPS 114385
2004 09 09.19033 22 09 52.56 -18 59 36.0 19.1   704 – Lincoln Laboratory ETS, New Mexico MPS 114385
2004 09 09.20238 22 09 52.16 -18 59 40.1 19.4   704 – Lincoln Laboratory ETS, New Mexico MPS 114385
2004 09 09.21391 22 09 51.81 -18 59 41.0 19.4   704 – Lincoln Laboratory ETS, New Mexico MPS 114385
2004 09 09.22539 22 09 51.49 -18 59 44.6 19.3   704 – Lincoln Laboratory ETS, New Mexico MPS 114385
2004 09 12.12484 22 08 40.09 -19 08 26.7 19.0   704 – Lincoln Laboratory ETS, New Mexico MPS 114385
2004 09 12.13606 22 08 39.78 -19 08 28.1 19.0   704 – Lincoln Laboratory ETS, New Mexico MPS 114385
2004 09 12.14727 22 08 39.47 -19 08 30.6 19.5   704 – Lincoln Laboratory ETS, New Mexico MPS 114385
2004 09 12.16978 22 08 38.94 -19 08 35.1 19.5   704 – Lincoln Laboratory ETS, New Mexico MPS 114385
2004 09 16.56409 22 07 16.38 -19 17 04.6 19.1 R E12 – Siding Spring Survey MPS 114385
2004 09 16.57259 22 07 16.21 -19 17 05.5 18.8 R E12 – Siding Spring Survey MPS 114385
2004 09 16.58117 22 07 16.06 -19 17 06.0 18.4 R E12 – Siding Spring Survey MPS 114385
2004 09 16.58975 22 07 15.94 -19 17 07.1 19.4 R E12 – Siding Spring Survey MPS 114385
2004 10 09.11815 22 09 48.49 -18 41 40.9 19.2   644 – Palomar Mountain/NEAT MPS 116630
2004 10 09.13978 22 09 49.03 -18 41 35.0 19.2   644 – Palomar Mountain/NEAT MPS 116630
2004 10 09.16161 22 09 49.58 -18 41 29.8 19.4   644 – Palomar Mountain/NEAT MPS 116630
2007 03 14.32559 11 35 37.32 +09 16 06.4 20.6 V G96 – Mt. Lemmon Survey MPS 259226
2007 03 14.33451 11 35 36.81 +09 16 10.0 20.1 V G96 – Mt. Lemmon Survey MPS 259226
2007 03 14.34351 11 35 36.27 +09 16 13.7 20.0 V G96 – Mt. Lemmon Survey MPS 259226
2007 03 14.35275 11 35 35.73 +09 16 17.7 19.9 V G96 – Mt. Lemmon Survey MPS 259226
2008 09 23.40624 02 15 37.87 +05 10 04.9 19.9 V G96 – Mt. Lemmon Survey MPS 259226
2008 09 23.41267 02 15 37.62 +05 10 03.0 20.0 V G96 – Mt. Lemmon Survey MPS 259226
2008 09 23.41898 02 15 37.40 +05 10 01.1 19.9 V G96 – Mt. Lemmon Survey MPS 259226
2008 09 23.42528 02 15 37.11 +05 09 58.9 20.0 V G96 – Mt. Lemmon Survey MPS 259226
2008 09 28.33607 02 12 15.68 +04 42 53.1 20.4 R 683 – Goodricke-Pigott Observatory, Tucson MPS 259226
2008 09 28.34946 02 12 14.94 +04 42 50.1 20.1 R 683 – Goodricke-Pigott Observatory, Tucson MPS 259226
2008 09 28.36287 02 12 14.18 +04 42 44.6 20.9 R 683 – Goodricke-Pigott Observatory, Tucson MPS 259226
2008 09 29.28981 02 11 31.81 +04 37 29.1   704 – Lincoln Laboratory ETS, New Mexico MPS 407485
2008 09 29.30210 02 11 31.12 +04 37 24.5   704 – Lincoln Laboratory ETS, New Mexico MPS 407485
2008 09 29.31437 02 11 30.57 +04 37 20.4   704 – Lincoln Laboratory ETS, New Mexico MPS 407485
2008 09 29.32667 02 11 29.96 +04 37 16.2   704 – Lincoln Laboratory ETS, New Mexico MPS 407485
2008 09 29.33895 02 11 29.41 +04 37 12.4   704 – Lincoln Laboratory ETS, New Mexico MPS 407485
2008 10 08.35061 02 03 34.05 +03 45 15.1 19.7 R G89 – Kachina Observatory, Flagstaff MPS 259226
2008 10 08.37337 02 03 32.68 +03 45 07.4 19.7 R G89 – Kachina Observatory, Flagstaff MPS 259226
2008 10 08.40218 02 03 30.94 +03 44 57.5 19.7 R G89 – Kachina Observatory, Flagstaff MPS 259226
2008 10 09.34688 02 02 36.30 +03 39 35.3 19.6 R G89 – Kachina Observatory, Flagstaff MPS 259226
2008 10 09.36512 02 02 35.19 +03 39 29.1 19.6 R G89 – Kachina Observatory, Flagstaff MPS 259226
2008 10 09.39703 02 02 33.25 +03 39 18.2 19.6 R G89 – Kachina Observatory, Flagstaff MPS 259226
2008 10 24.25809 01 47 33.77 +02 24 40.6 19.7   704 – Lincoln Laboratory ETS, New Mexico MPS 261480
2008 10 24.26957 01 47 33.01 +02 24 36.9 20.0   704 – Lincoln Laboratory ETS, New Mexico MPS 261480
2008 10 24.28117 01 47 32.32 +02 24 34.5 20.0   704 – Lincoln Laboratory ETS, New Mexico MPS 261480
2008 10 24.29267 01 47 31.61 +02 24 31.6 20.1   704 – Lincoln Laboratory ETS, New Mexico MPS 261480
2008 10 24.30434 01 47 30.90 +02 24 28.0 20.1   704 – Lincoln Laboratory ETS, New Mexico MPS 261480
2008 10 29.29001 01 42 43.16 +02 06 05.7 19.3 V 703 – Catalina Sky Survey MPS 261480
2008 10 29.29675 01 42 42.80 +02 06 04.1 19.8 V 703 – Catalina Sky Survey MPS 261480
2008 10 29.30345 01 42 42.48 +02 06 02.7 19.9 V 703 – Catalina Sky Survey MPS 261480
2008 10 29.31001 01 42 42.01 +02 06 00.5 19.4 V 703 – Catalina Sky Survey MPS 261480
2008 10 30.20157 01 41 53.10 +02 03 12.7 19.7   704 – Lincoln Laboratory ETS, New Mexico MPS 261480
2008 10 30.21317 01 41 52.41 +02 03 10.8 20.1   704 – Lincoln Laboratory ETS, New Mexico MPS 261480
2008 10 30.23675 01 41 51.14 +02 03 06.8 20.1   704 – Lincoln Laboratory ETS, New Mexico MPS 261480
2008 10 30.24830 01 41 50.41 +02 03 04.2 20.4   704 – Lincoln Laboratory ETS, New Mexico MPS 261480
2011 03 02.44291 13 33 06.89 -02 46 49.6 20.6 V 691 – Steward Observatory, Kitt Peak-Spacewatch MPS 371981
2011 03 02.46062 13 33 06.59 -02 46 44.9 21.1 V 691 – Steward Observatory, Kitt Peak-Spacewatch MPS 371981
2011 03 02.47834 13 33 06.33 -02 46 40.8 21.1 V 691 – Steward Observatory, Kitt Peak-Spacewatch MPS 371981
2011 04 01.43139 13 14 56.07 +00 11 09.3 20.1 V G96 – Mt. Lemmon Survey MPS 375516
2011 04 01.43936 13 14 55.64 +00 11 12.9 20.1 V G96 – Mt. Lemmon Survey MPS 375516
2011 04 01.44741 13 14 55.21 +00 11 15.9 19.5 V G96 – Mt. Lemmon Survey MPS 375516
2011 04 01.45535 13 14 54.74 +00 11 19.2 20.2 V G96 – Mt. Lemmon Survey MPS 375516
2012 10 21.554824 04 15 53.892 +15 09 30.55 20.9 w F51 – Pan-STARRS 1, Haleakala MPS 439328
2012 10 21.570840 04 15 53.191 +15 09 28.23 20.8 w F51 – Pan-STARRS 1, Haleakala MPS 439328
2012 10 21.586885 04 15 52.499 +15 09 25.81 20.8 w F51 – Pan-STARRS 1, Haleakala MPS 439328
